Wind_Speed
62 67 72 78 82 82 71 62 58 58 60 64 69 76 74 52 19 17 18 13 11 10 8 13 18 22 30 57 59 56 59 62 54 50 46 43 45 43 44 42 43 48 45 45 47 48 43
61 66 70 76 81 78 67 61 56 57 59 63 68 73 70 49 20 16 15 13 12 11 9 4 13 15 24 32 52 56 55 59 55 51 49 45 42 45 42 43 41 41 44 42 46 54 50
62 66 70 76 81 76 63 60 53 54 57 60 63 65 66 62 34 17 15 12 16 13 8 4 15 23 26 25 34 55 53 56 47 51 42 47 44 44 45 42 44 44 43 40 40 45 42
61 66 70 75 79 76 62 61 51 53 54 55 58 55 65 67 68 27 10 10 6 9 7 4 10 21 21 24 32 39 51 58 51 43 46 46 47 43 44 44 41 45 42 43 39 39 39
62 68 70 77 80 77 61 59 52 50 51 50 50 52 62 55 62 58 24 14 10 4 8 5 10 20 19 25 35 39 43 54 52 45 46 45 43 45 43 44 43 44 40 40 36 35 38
60 66 69 74 80 76 63 57 53 46 47 45 45 51 57 53 48 57 45 23 16 8 9 5 9 16 24 27 32 38 41 50 48 45 44 45 42 42 44 40 39 33 30 35 35 34 40
59 64 67 74 80 77 66 55 54 43 45 41 41 47 50 49 54 55 54 38 25 14 6 9 12 12 17 25 30 38 44 49 51 50 39 41 40 35 33 34 36 37 33 37 37 38 40
55 61 64 72 79 78 66 54 53 42 42 37 37 41 45 45 47 50 42 41 34 28 18 9 9 14 19 24 30 36 46 44 46 48 36 36 39 34 35 36 34 38 36 34 41 39 37
55 59 63 68 77 74 65 53 51 43 37 34 32 35 36 34 38 37 36 39 42 39 31 45 34 22 20 24 31 36 41 47 41 42 33 30 31 35 35 34 37 34 34 35 38 37 38
52 55 61 69 74 76 67 54 48 46 34 32 28 26 28 26 30 29 29 31 36 34 31 27 28 31 28 19 25 35 39 48 49 46 37 35 29 31 34 33 36 36 37 37 36 36 35
49 53 60 65 72 74 70 59 45 47 37 29 25 20 24 18 24 23 25 30 39 33 38 38 27 27 15 17 28 28 36 42 45 44 46 42 35 33 29 30 34 36 39 38 33 38 38
47 51 55 63 70 73 72 64 44 42 40 26 21 17 16 11 17 18 22 22 30 30 31 26 28 18 22 23 21 23 35 41 46 32 43 43 41 28 28 32 30 32 37 37 37 36 39
44 48 53 58 66 69 71 67 51 38 39 26 18 14 11 11 10 14 17 17 22 24 23 22 25 27 19 25 24 23 26 35 36 38 37 39 39 31 26 24 28 32 34 37 39 40 35
43 48 51 57 64 67 71 70 62 34 37 28 15 10 6 6 8 7 9 13 13 19 23 16 24 26 20 19 15 23 19 23 26 29 33 42 44 36 33 30 29 29 32 32 33 35 35
41 45 47 54 61 65 69 71 67 43 32 29 15 11 3 2 1 3 6 12 13 15 18 13 12 20 14 18 21 15 12 16 18 19 23 24 33 45 46 37 37 34 34 35 32 32 40
39 40 42 50 60 65 68 73 71 55 26 28 16 12 8 3 4 4 3 5 8 12 11 11 9 11 16 19 15 18 14 15 19 19 22 24 27 31 34 37 32 30 34 32 34 35 37
37 40 41 49 57 62 67 69 70 58 22 24 18 11 11 9 8 8 9 3 2 4 6 8 7 6 8 12 13 11 13 12 14 15 20 18 23 21 19 30 23 21 23 27 29 33 35
38 38 40 47 50 59 63 68 69 61 24 22 16 13 13 11 12 11 9 11 5 2 2 3 3 3 2 4 7 7 7 6 11 11 10 11 21 21 24 20 21 19 18 21 27 30 33
40 39 40 44 47 53 58 64 68 62 28 23 18 12 15 12 12 13 14 11 11 8 4 4 3 2 2 1 2 4 7 8 9 8 10 12 16 20 21 24 22 22 18 13 13 16 26
40 39 40 43 44 49 54 61 66 59 33 23 22 12 16 16 14 14 13 12 11 11 9 6 5 4 4 3 3 3 5 9 12 13 13 13 13 14 20 18 16 19 15 17 24 26 23
37 37 38 41 43 47 50 59 63 62 36 21 23 11 15 19 17 17 17 14 12 11 11 10 8 6 6 7 7 7 5 8 10 12 14 17 18 20 22 22 22 21 22 21 19 18 17
37 38 41 44 44 46 51 58 61 58 33 21 22 12 17 20 22 21 19 16 15 14 13 11 9 10 11 10 10 11 9 8 10 11 9 10 15 21 21 22 25 25 25 25 21 20 20
39 43 45 42 45 46 49 53 56 54 43 27 26 15 19 20 26 24 21 20 18 16 15 13 11 9 8 8 7 9 10 10 10 10 11 13 15 15 18 23 24 25 23 24 24 22 23
41 42 43 45 45 46 47 53 53 53 48 34 26 15 17 21 22 26 22 22 20 17 16 15 13 11 9 8 6 5 10 12 10 10 10 12 15 16 16 19 20 18 20 21 23 24 23
44 44 46 46 48 46 48 51 53 53 47 35 21 16 17 20 22 28 28 25 24 21 18 17 15 14 12 9 6 4 6 11 10 10 10 11 12 14 11 15 12 11 15 16 17 18 17
44 45 48 47 46 48 51 52 53 53 43 32 25 17 18 18 26 20 31 27 25 24 22 21 18 17 16 14 10 7 8 9 10 10 10 10 9 8 8 10 10 11 11 13 14 15 15
44 47 50 49 48 51 52 51 52 47 41 32 27 21 18 19 21 24 25 32 28 27 25 22 21 20 20 19 18 14 11 10 10 9 9 11 12 13 12 9 10 12 10 11 11 10 12
43 46 49 50 50 51 51 49 51 44 33 32 29 22 16 16 19 22 24 29 35 31 28 24 26 24 23 23 21 20 19 15 13 12 13 12 12 13 14 13 12 13 12 11 8 10 13
36 40 44 48 49 54 53 48 49 38 28 28 30 26 20 20 18 20 23 21 27 39 34 30 28 25 22 21 20 21 20 20 20 18 16 15 15 14 14 15 15 14 15 14 15 14 14
Wind_Direction
349 346 343 341 343 348 353 347 348 347 345 346 350 351 352 347 331 290 308 287 255 254 279 245 215 215 222 231 223 221 209 206 208 210 211 211 213 215 218 220 224 224 224 218 209 199 194
350 349 346 344 344 351 353 348 350 348 347 352 355 354 357 358 336 318 319 290 266 246 273 261 196 191 193 218 219 217 216 206 202 209 208 209 210 213 214 215 221 226 224 218 218 199 195
356 354 348 345 346 353 352 348 353 350 350 358 360 2 9 16 1 322 305 283 278 247 235 227 200 182 199 208 207 211 209 207 200 209 207 207 209 211 213 212 214 219 226 217 217 215 213
353 351 347 346 348 352 354 349 354 351 353 1 3 11 16 18 19 4 356 1 317 243 199 225 184 192 206 191 185 194 202 208 198 200 205 206 208 208 211 212 215 220 223 223 214 223 223
352 351 347 345 348 353 356 349 354 353 354 3 6 7 13 18 21 20 20 15 12 352 230 204 181 190 179 166 172 175 188 203 199 193 201 204 205 207 211 211 214 219 218 230 224 225 221
350 347 346 346 347 355 358 352 354 353 354 4 9 13 16 16 11 19 26 32 38 88 131 171 165 181 183 170 168 167 173 187 195 177 194 201 202 205 208 213 219 227 233 232 231 229 224
348 348 348 344 345 353 0 354 353 354 355 5 12 17 20 20 23 18 22 35 50 72 114 144 152 158 163 174 170 165 160 174 189 190 190 194 198 209 213 210 214 218 222 224 222 229 229
345 348 348 343 346 350 359 357 351 354 354 3 14 22 30 34 26 24 36 45 52 58 74 97 148 161 166 166 169 172 169 166 183 194 187 194 199 202 207 212 215 215 218 222 224 226 230
349 347 347 343 344 349 357 357 353 355 353 0 15 23 36 44 38 35 48 66 68 70 75 79 83 98 129 160 166 172 174 169 172 183 186 195 198 209 215 217 218 221 222 223 227 230 232
345 349 345 341 343 346 356 358 351 350 356 358 14 25 44 48 39 38 31 41 35 45 58 60 70 79 105 125 147 164 175 172 164 167 170 175 179 202 207 208 209 214 220 223 227 235 234
340 349 341 340 339 344 352 1 350 346 355 357 8 28 43 56 40 39 27 42 40 51 52 50 67 67 77 80 109 144 163 170 171 181 190 191 193 189 189 195 203 211 219 224 230 239 234
344 350 342 336 338 343 347 358 353 347 349 352 355 20 36 82 44 40 27 32 31 48 46 36 63 88 105 95 103 144 161 166 170 171 192 203 196 193 196 204 211 219 223 225 230 233 236
343 347 339 336 337 340 346 350 357 347 343 354 345 3 33 60 55 34 39 29 30 38 44 62 99 121 122 116 114 146 155 176 185 190 189 188 200 209 211 208 219 224 226 230 234 235 240
339 345 337 334 335 338 343 345 354 350 338 348 335 339 28 43 56 45 27 30 18 33 44 67 114 118 106 74 111 143 152 161 170 192 211 218 208 202 210 222 233 230 228 232 242 241 244
340 341 338 333 333 336 339 340 344 355 336 339 326 315 336 39 164 47 12 56 58 43 57 77 123 110 85 83 100 109 154 188 169 172 182 188 205 219 225 226 227 229 225 236 243 241 234
331 339 339 332 331 335 337 337 339 351 332 330 329 303 280 243 241 245 306 43 78 66 66 69 111 90 69 76 97 114 126 149 183 187 189 182 193 206 215 220 221 222 233 243 241 241 238
323 331 335 329 332 333 335 336 340 345 332 322 329 293 284 256 233 238 233 254 74 75 74 110 121 114 70 80 80 110 105 117 143 166 188 190 203 208 205 212 214 224 231 239 239 234 236
322 328 331 329 334 331 333 334 336 344 338 320 335 283 277 270 236 231 234 242 249 190 119 154 172 139 94 81 100 119 116 149 146 173 196 209 210 213 211 212 216 220 229 227 228 230 232
318 322 330 331 335 333 333 332 335 343 342 318 338 281 265 269 245 233 240 240 245 253 223 209 217 233 184 241 148 176 178 172 180 198 189 191 202 205 208 219 228 225 222 233 230 229 227
318 318 322 327 334 334 334 333 335 344 348 330 334 295 258 257 245 238 234 243 246 238 245 256 249 241 249 272 280 256 211 202 196 200 212 210 211 213 222 230 232 220 228 239 245 253 242
318 317 322 329 332 336 338 332 332 339 351 333 324 303 251 248 249 242 237 233 237 239 246 257 268 273 289 304 304 294 254 211 209 208 207 212 218 221 227 228 231 233 236 236 239 249 244
311 315 323 329 329 337 335 330 331 339 351 314 319 291 248 240 246 244 243 245 241 242 244 250 256 267 280 291 275 273 267 237 206 199 205 220 227 229 233 234 230 228 234 247 240 242 244
307 303 312 329 333 339 334 329 330 336 339 332 313 307 255 244 238 244 243 243 244 243 243 249 258 269 283 293 279 260 246 232 216 218 224 230 235 240 240 242 242 241 238 231 237 241 241
303 310 313 326 333 335 335 331 329 332 337 332 325 306 268 244 248 237 241 244 244 241 237 240 243 252 271 296 297 266 231 222 229 242 240 238 237 244 242 243 245 242 236 230 232 235 242
303 308 316 324 332 333 336 331 330 331 338 334 333 305 280 253 241 235 233 234 236 236 239 244 250 257 265 273 280 268 217 215 241 255 249 241 242 251 251 237 237 229 232 227 224 229 231
302 310 314 327 332 337 336 329 330 332 339 339 342 318 287 274 240 249 229 233 234 235 238 241 245 249 257 266 270 260 237 234 239 238 238 233 234 217 254 239 230 219 219 223 221 223 223
305 308 315 327 330 336 339 332 329 334 337 338 341 325 301 281 261 241 238 228 231 234 235 238 244 247 254 260 264 259 251 246 242 241 238 233 230 230 242 231 223 225 220 227 227 220 226
312 315 319 329 334 337 338 333 330 338 338 338 340 336 318 287 271 253 244 232 230 234 236 235 244 251 257 257 259 257 251 247 246 239 241 242 239 236 235 236 226 224 223 230 226 219 224
326 330 333 334 338 341 341 336 332 340 335 337 339 336 325 291 265 257 243 238 235 231 236 241 247 254 262 262 262 260 258 251 245 245 245 244 245 242 241 241 241 233 230 228 230 235 239
Height
5775 5763 5749 5734 5720 5706 5694 5679 5667 5655 5644 5629 5613 5594 5574 5556 5547 5544 5543 5542 5543 5544 5545 5546 5549 5554 5561 5574 5592 5606 5619 5630 5647 5657 5669 5679 5688 5696 5704 5712 5717 5728 5736 5744 5748 5757 5765
5772 5760 5746 5731 5715 5702 5689 5676 5663 5652 5640 5625 5609 5590 5572 5554 5546 5543 5541 5540 5540 5541 5543 5544 5546 5549 5557 5566 5581 5599 5612 5624 5640 5651 5662 5673 5683 5691 5697 5704 5713 5723 5726 5735 5741 5754 5760
5770 5757 5741 5727 5712 5698 5685 5672 5660 5649 5638 5623 5609 5591 5573 5556 5545 5540 5538 5536 5536 5538 5540 5542 5544 5550 5556 5562 5573 5588 5601 5613 5629 5642 5655 5667 5675 5684 5693 5700 5706 5711 5718 5729 5736 5749 5755
5767 5754 5739 5725 5710 5695 5683 5671 5659 5648 5637 5624 5611 5595 5579 5562 5550 5540 5536 5534 5532 5534 5538 5541 5545 5549 5549 5558 5567 5580 5594 5608 5623 5639 5652 5658 5667 5678 5686 5696 5703 5706 5716 5721 5735 5742 5749
5766 5751 5737 5722 5708 5694 5682 5670 5660 5649 5638 5626 5613 5600 5585 5571 5556 5547 5539 5534 5533 5534 5537 5541 5544 5548 5554 5558 5565 5574 5591 5605 5619 5634 5644 5653 5664 5676 5683 5691 5698 5701 5713 5719 5731 5738 5744
5763 5749 5735 5721 5708 5695 5683 5671 5659 5649 5640 5630 5617 5606 5593 5580 5566 5556 5546 5538 5535 5535 5537 5542 5545 5549 5553 5560 5566 5576 5589 5604 5618 5633 5640 5650 5660 5669 5678 5689 5699 5709 5715 5720 5726 5735 5739
5761 5749 5734 5721 5707 5695 5683 5671 5659 5650 5642 5633 5623 5612 5601 5588 5577 5567 5556 5547 5542 5540 5542 5545 5547 5551 5555 5562 5570 5579 5587 5602 5615 5627 5639 5647 5657 5670 5686 5689 5694 5702 5707 5713 5721 5726 5730
5759 5747 5733 5719 5708 5696 5683 5671 5659 5652 5645 5637 5628 5619 5610 5600 5589 5581 5572 5562 5554 5549 5547 5546 5549 5552 5557 5563 5572 5580 5590 5602 5615 5630 5639 5648 5659 5669 5676 5683 5690 5696 5702 5711 5712 5720 5724
5757 5745 5733 5719 5707 5694 5682 5672 5661 5652 5646 5640 5633 5626 5618 5610 5602 5594 5588 5579 5570 5564 5559 5557 5557 5557 5560 5565 5574 5583 5593 5604 5619 5631 5642 5651 5659 5665 5673 5680 5687 5695 5703 5705 5712 5717 5722
5754 5743 5731 5718 5706 5693 5683 5672 5662 5654 5649 5643 5638 5631 5625 5617 5611 5604 5599 5593 5585 5578 5572 5572 5571 5571 5569 5572 5578 5586 5597 5609 5620 5632 5637 5647 5654 5663 5669 5677 5684 5692 5698 5700 5708 5713 5717
5752 5743 5729 5717 5704 5693 5683 5672 5663 5656 5651 5645 5640 5634 5630 5622 5617 5611 5608 5602 5597 5591 5583 5583 5580 5583 5581 5583 5588 5593 5601 5613 5624 5632 5639 5648 5655 5662 5669 5675 5680 5687 5692 5699 5704 5706 5710
5750 5740 5729 5716 5703 5691 5680 5671 5662 5654 5649 5647 5642 5637 5633 5629 5623 5617 5613 5609 5607 5603 5593 5594 5592 5593 5594 5596 5599 5603 5609 5618 5627 5633 5640 5649 5655 5662 5669 5673 5678 5684 5689 5695 5699 5700 5703
5746 5737 5726 5714 5702 5690 5680 5671 5664 5655 5646 5645 5643 5637 5634 5632 5627 5623 5618 5617 5616 5610 5606 5604 5600 5600 5602 5606 5609 5612 5617 5623 5629 5634 5639 5645 5653 5661 5665 5670 5675 5681 5685 5689 5692 5695 5702
5744 5734 5722 5711 5700 5689 5678 5669 5660 5651 5646 5642 5639 5637 5634 5632 5629 5626 5624 5622 5621 5617 5614 5612 5611 5611 5612 5614 5615 5619 5623 5628 5632 5638 5642 5645 5652 5657 5662 5668 5675 5679 5682 5686 5688 5692 5698
5741 5732 5721 5709 5698 5688 5675 5664 5656 5649 5643 5638 5635 5636 5633 5633 5631 5628 5627 5626 5624 5621 5620 5620 5619 5620 5620 5620 5621 5623 5626 5629 5634 5638 5641 5643 5648 5656 5662 5667 5673 5674 5677 5681 5683 5685 5687
5738 5729 5718 5707 5696 5686 5673 5661 5652 5644 5638 5633 5633 5633 5632 5630 5631 5629 5629 5627 5626 5626 5624 5624 5624 5625 5625 5624 5626 5626 5628 5630 5634 5638 5642 5646 5650 5655 5659 5664 5668 5671 5674 5675 5676 5679 5681
5733 5725 5715 5705 5694 5683 5671 5659 5649 5640 5633 5629 5627 5628 5629 5628 5628 5628 5627 5627 5626 5627 5628 5628 5628 5629 5629 5629 5630 5630 5631 5633 5635 5638 5642 5645 5649 5653 5655 5658 5663 5665 5667 5669 5671 5673 5675
5729 5723 5712 5702 5692 5680 5670 5658 5645 5636 5629 5624 5622 5624 5624 5624 5625 5626 5625 5625 5626 5626 5627 5629 5629 5629 5629 5630 5631 5633 5634 5635 5637 5638 5641 5643 5645 5649 5653 5656 5659 5660 5663 5662 5664 5668 5671
5725 5718 5708 5700 5689 5678 5665 5653 5641 5632 5626 5623 5620 5619 5621 5620 5621 5622 5623 5623 5624 5625 5626 5627 5628 5629 5629 5630 5632 5632 5633 5635 5637 5639 5641 5643 5645 5648 5650 5654 5656 5657 5660 5661 5662 5664 5666
5720 5713 5705 5695 5685 5673 5661 5649 5637 5628 5623 5619 5617 5615 5617 5617 5618 5620 5620 5621 5622 5623 5625 5626 5627 5628 5628 5628 5630 5631 5632 5633 5635 5637 5638 5641 5643 5646 5649 5651 5652 5654 5656 5657 5659 5661 5664
5715 5708 5700 5691 5682 5670 5657 5645 5634 5626 5619 5617 5612 5610 5611 5613 5614 5616 5617 5618 5619 5621 5622 5624 5625 5625 5626 5627 5628 5628 5630 5631 5632 5633 5636 5638 5639 5641 5643 5645 5647 5649 5651 5653 5656 5657 5658
5710 5703 5696 5687 5678 5667 5654 5642 5631 5621 5615 5613 5609 5606 5605 5607 5609 5611 5613 5615 5616 5617 5619 5621 5622 5623 5624 5625 5625 5626 5627 5628 5630 5631 5632 5633 5636 5637 5639 5640 5642 5643 5646 5649 5653 5654 5656
5703 5697 5691 5683 5674 5662 5650 5639 5627 5616 5611 5606 5604 5601 5600 5601 5603 5606 5610 5611 5613 5614 5616 5617 5619 5620 5621 5621 5621 5622 5623 5625 5626 5628 5630 5631 5632 5633 5635 5636 5637 5639 5642 5644 5646 5648 5650
5695 5691 5685 5679 5670 5659 5647 5635 5623 5612 5606 5603 5598 5596 5595 5597 5598 5602 5604 5607 5609 5611 5613 5615 5616 5618 5619 5619 5619 5619 5620 5622 5624 5626 5627 5628 5629 5630 5632 5631 5633 5635 5637 5639 5641 5642 5644
5689 5684 5679 5673 5665 5655 5642 5629 5619 5607 5601 5596 5591 5591 5590 5590 5591 5594 5597 5600 5603 5607 5610 5611 5614 5615 5616 5616 5617 5618 5618 5620 5622 5622 5623 5625 5626 5626 5627 5628 5631 5631 5632 5635 5637 5639 5641
5682 5678 5673 5667 5659 5651 5638 5624 5614 5605 5597 5592 5588 5585 5584 5584 5585 5588 5590 5594 5598 5601 5604 5607 5609 5610 5612 5613 5615 5615 5616 5618 5619 5620 5620 5621 5623 5624 5625 5626 5627 5629 5630 5632 5634 5637 5639
5674 5671 5667 5661 5653 5646 5634 5621 5609 5600 5593 5589 5584 5580 5578 5578 5579 5582 5584 5588 5591 5595 5599 5602 5604 5606 5607 5610 5611 5612 5613 5615 5616 5616 5618 5618 5620 5622 5622 5624 5626 5626 5628 5630 5633 5637 5635
5664 5662 5661 5656 5648 5641 5631 5617 5605 5597 5590 5585 5580 5576 5573 5573 5574 5576 5579 5581 5584 5588 5593 5598 5599 5601 5603 5604 5606 5607 5609 5610 5611 5612 5613 5615 5616 5617 5619 5620 5623 5624 5626 5628 5629 5629 5631
5656 5653 5650 5649 5643 5636 5626 5613 5601 5591 5586 5582 5577 5571 5567 5565 5567 5568 5571 5574 5578 5581 5585 5590 5593 5595 5598 5600 5602 5602 5604 5605 5607 5608 5609 5611 5613 5614 5616 5617 5618 5619 5621 5623 5625 5626 5628